KE8DAF-15 Weather Reports


time (UTC)temp
C
wind
direction
speed
KPH
gust
KPH
rain 1hr
cm
rain 24hr
cm
rain mn
cm
humidity
%
barometer
mb
20260509123941 10 154 1.6 6.4 0.00 0.00 0.00 65 984.6
20260509123441 10 146 1.6 4.8 0.00 0.00 0.00 63 984.6
20260509122941 10 143 1.6 4.8 0.00 0.00 0.00 63 984.6
20260509122441 10 160 1.6 4.8 0.00 0.00 0.00 63 984.8
20260509122028 10 116 1.6 4.8 0.00 0.00 0.00 62 984.9
20260509121941 10 116 1.6 4.8 0.00 0.00 0.00 62 984.9
20260509121441 10 144 1.6 3.2 0.00 0.00 0.00 62 985.0
20260509120941 10 146 1.6 4.8 0.00 0.00 0.00 62 985.2
20260509120441 10 134 1.6 4.8 0.00 0.00 0.00 62 985.2
20260509115941 9 168 1.6 4.8 0.00 0.00 0.00 62 985.3
20260509115441 9 144 1.6 4.8 0.00 0.00 0.00 61 985.1
20260509114941 9 143 3.2 6.4 0.00 0.00 0.00 61 985.2
20260509114441 9 161 1.6 6.4 0.00 0.00 0.00 60 985.3
20260509113941 8 158 1.6 3.2 0.00 0.00 0.00 61 985.6
20260509113441 8 147 1.6 3.2 0.00 0.00 0.00 61 985.8
20260509112941 8 167 1.6 4.8 0.00 0.00 0.00 61 985.8
20260509112441 8 159 1.6 4.8 0.00 0.00 0.00 61 985.7
20260509111941 8 160 1.6 4.8 0.00 0.00 0.00 61 985.7
20260509111441 8 138 1.6 3.2 0.00 0.00 0.00 60 985.8
20260509110942 7 161 1.6 3.2 0.00 0.00 0.00 60 985.9
20260509110441 7 146 0.0 4.8 0.00 0.00 0.00 60 985.9
20260509105941 7 146 0.0 1.6 0.00 0.00 0.00 61 986.1
20260509105441 7 142 0.0 3.2 0.00 0.00 0.00 61 986.0
20260509104942 7 161 0.0 1.6 0.00 0.00 0.00 61 986.1
20260509104442 7 140 1.6 3.2 0.00 0.00 0.00 61 986.2
20260509103942 7 128 1.6 3.2 0.00 0.00 0.00 60 986.3
20260509103442 7 138 1.6 3.2 0.00 0.00 0.00 60 986.3
20260509102942 7 136 1.6 1.6 0.00 0.00 0.00 60 986.4
20260509102442 7 134 1.6 3.2 0.00 0.00 0.00 60 986.4
20260509101942 7 135 1.6 3.2 0.00 0.00 0.00 60 986.6
20260509101442 7 144 1.6 1.6 0.00 0.00 0.00 60 986.7
20260509100942 7 124 0.0 3.2 0.00 0.00 0.00 59 986.7
20260509100442 7 172 0.0 1.6 0.00 0.00 0.00 60 986.8
20260509095942 7 148 1.6 3.2 0.00 0.00 0.00 60 986.9
20260509095442 7 178 0.0 4.8 0.00 0.00 0.00 60 986.9
20260509094942 7 149 0.0 3.2 0.00 0.00 0.00 60 987.0
20260509094442 7 74 1.6 3.2 0.00 0.00 0.00 60 986.9
20260509093942 7 130 1.6 3.2 0.00 0.00 0.00 61 987.0
20260509093442 7 126 1.6 3.2 0.00 0.00 0.00 60 987.2
20260509092942 7 153 1.6 4.8 0.00 0.00 0.00 60 987.2
20260509092442 7 151 1.6 1.6 0.00 0.00 0.00 61 987.3
20260509091942 7 144 0.0 3.2 0.00 0.00 0.00 61 987.4
20260509091442 7 149 1.6 1.6 0.00 0.00 0.00 60 987.4
20260509090942 7 149 1.6 4.8 0.00 0.00 0.00 60 987.4
20260509090442 7 138 1.6 3.2 0.00 0.00 0.00 59 987.4
20260509085942 7 117 1.6 3.2 0.00 0.00 0.00 59 987.5
20260509085442 7 159 1.6 3.2 0.00 0.00 0.00 59 987.6
20260509084942 7 161 1.6 3.2 0.00 0.00 0.00 59 987.6
20260509084442 7 154 1.6 4.8 0.00 0.00 0.00 58 987.7
20260509083942 8 161 1.6 3.2 0.00 0.00 0.00 59 987.7
20260509083442 8 155 1.6 3.2 0.00 0.00 0.00 58 987.9
20260509082942 8 146 0.0 3.2 0.00 0.00 0.00 59 987.9
20260509082442 8 151 0.0 3.2 0.00 0.00 0.00 59 988.0
20260509081942 8 144 1.6 4.8 0.00 0.00 0.00 59 988.2
20260509081442 8 115 1.6 3.2 0.00 0.00 0.00 58 988.1
20260509080942 8 165 1.6 3.2 0.00 0.00 0.00 59 988.2
20260509080442 8 159 1.6 4.8 0.00 0.00 0.00 59 988.2
20260509075942 8 160 1.6 3.2 0.00 0.00 0.00 59 988.3
20260509075442 8 150 3.2 8.0 0.00 0.00 0.00 59 988.4
20260509075019 8 151 3.2 8.0 0.00 0.00 0.00 59 988.5
20260509074942 8 151 3.2 8.0 0.00 0.00 0.00 59 988.5
20260509074442 8 158 1.6 8.0 0.00 0.00 0.00 59 988.6
20260509073942 7 150 1.6 3.2 0.00 0.00 0.00 60 988.7
20260509073442 7 163 1.6 3.2 0.00 0.00 0.00 61 988.7
20260509072942 7 161 1.6 3.2 0.00 0.00 0.00 61 988.9
20260509072442 7 155 0.0 3.2 0.00 0.00 0.00 62 988.9
20260509071942 7 149 0.0 0.0 0.00 0.00 0.00 63 989.0
20260509071442 7 146 0.0 0.0 0.00 0.00 0.00 63 989.2
20260509070942 7 147 0.0 1.6 0.00 0.00 0.00 64 989.2
20260509070442 7 348 1.6 4.8 0.00 0.00 0.00 64 989.3
20260509065942 7 114 1.6 3.2 0.00 0.00 0.00 63 989.4
20260509065442 7 115 1.6 3.2 0.00 0.00 0.00 61 989.7
20260509064942 7 165 1.6 6.4 0.00 0.00 0.00 61 989.5
20260509064442 7 157 3.2 4.8 0.00 0.00 0.00 60 989.5
20260509063942 7 163 3.2 6.4 0.00 0.00 0.00 60 989.6
20260509063442 7 139 4.8 9.7 0.00 0.00 0.00 60 989.7
20260509062942 7 159 4.8 8.0 0.00 0.00 0.00 59 989.8
20260509062442 7 163 4.8 8.0 0.00 0.00 0.00 59 989.9
20260509061942 7 158 4.8 8.0 0.00 0.00 0.00 59 990.0
20260509061442 7 147 4.8 8.0 0.00 0.00 0.00 58 990.2
20260509060942 7 152 4.8 8.0 0.00 0.00 0.00 58 990.3
20260509060443 7 149 4.8 9.7 0.00 0.00 0.00 59 990.4
20260509055942 7 146 4.8 8.0 0.00 0.00 0.00 59 990.5
20260509055443 7 153 4.8 8.0 0.00 0.00 0.00 60 990.5
20260509054943 7 153 4.8 8.0 0.00 0.00 0.00 60 990.7
20260509054443 7 157 4.8 9.7 0.00 0.00 0.00 60 990.7
20260509053943 7 152 3.2 8.0 0.00 0.00 0.00 61 990.7
20260509053443 7 165 3.2 6.4 0.00 0.00 0.00 61 990.8
20260509052943 7 153 3.2 6.4 0.00 0.00 0.00 61 990.9
20260509052443 7 157 3.2 8.0 0.00 0.00 0.00 61 991.0
20260509051943 7 168 1.6 4.8 0.00 0.00 0.00 61 991.0
20260509051443 7 156 1.6 6.4 0.00 0.00 0.00 61 991.1
20260509050943 7 167 3.2 4.8 0.00 0.00 0.00 61 991.1
20260509050443 7 165 3.2 6.4 0.00 0.00 0.00 60 991.1
20260509045943 7 166 3.2 8.0 0.00 0.00 0.00 60 991.1
20260509045443 7 153 4.8 8.0 0.00 0.00 0.00 60 991.2
20260509044943 7 158 4.8 9.7 0.00 0.00 0.00 60 991.2
20260509044443 7 157 4.8 8.0 0.00 0.00 0.00 60 991.2
20260509043943 7 150 4.8 9.7 0.00 0.00 0.00 60 991.2
20260509043443 7 134 4.8 12.9 0.00 0.00 0.00 60 991.2
20260509042943 7 166 4.8 11.3 0.00 0.00 0.00 60 991.3
20260509042443 7 152 4.8 11.3 0.00 0.00 0.00 61 991.4
20260509041943 7 153 4.8 9.7 0.00 0.00 0.00 60 991.5
20260509041443 7 153 4.8 11.3 0.00 0.00 0.00 60 991.6
20260509040943 7 156 4.8 9.7 0.00 0.00 0.00 60 991.6
20260509040443 7 157 4.8 9.7 0.00 0.00 0.00 60 991.7
20260509035943 7 147 4.8 11.3 0.00 0.00 0.00 61 991.8
20260509035443 7 157 4.8 9.7 0.00 0.00 0.00 60 991.8
20260509034943 7 154 4.8 12.9 0.00 0.00 0.00 60 991.9
20260509034443 7 152 4.8 11.3 0.00 0.00 0.00 60 991.9
20260509033943 7 154 4.8 11.3 0.00 0.00 0.00 59 992.0
20260509033443 7 153 4.8 9.7 0.00 0.00 0.00 60 992.1
20260509032943 7 129 4.8 8.0 0.00 0.00 0.00 60 992.1
20260509032443 7 158 3.2 9.7 0.00 0.00 0.00 60 992.2
20260509031943 7 142 3.2 6.4 0.00 0.00 0.00 61 992.3
20260509031443 7 133 3.2 8.0 0.00 0.00 0.00 61 992.4
20260509030943 7 146 3.2 9.7 0.00 0.00 0.00 62 992.4
20260509030443 7 171 3.2 6.4 0.00 0.00 0.00 63 992.5
20260509025943 7 156 1.6 4.8 0.00 0.00 0.00 64 992.5
20260509025443 7 161 3.2 8.0 0.00 0.00 0.00 64 992.6
20260509024943 6 150 4.8 9.7 0.00 0.00 0.00 63 992.8
20260509024443 6 148 3.2 9.7 0.00 0.00 0.00 63 992.8
20260509023943 6 156 3.2 4.8 0.00 0.00 0.00 63 992.8
20260509023443 6 162 3.2 4.8 0.00 0.00 0.00 64 992.8
20260509022943 6 150 3.2 6.4 0.00 0.00 0.00 64 992.8
20260509022443 6 163 3.2 4.8 0.00 0.00 0.00 65 992.8
20260509021943 6 153 3.2 6.4 0.00 0.00 0.00 65 992.9
20260509021443 6 165 3.2 6.4 0.00 0.00 0.00 65 992.8
20260509020943 6 150 1.6 4.8 0.00 0.00 0.00 66 992.8
20260509020443 6 168 1.6 3.2 0.00 0.00 0.00 65 992.9
20260509015943 6 160 1.6 6.4 0.00 0.00 0.00 65 992.9
20260509015443 6 169 1.6 6.4 0.00 0.00 0.00 64 992.8
20260509014943 6 165 1.6 3.2 0.00 0.00 0.00 64 992.8
20260509014443 6 157 1.6 3.2 0.00 0.00 0.00 64 992.8
20260509013943 6 162 1.6 3.2 0.00 0.00 0.00 64 992.8
20260509013444 6 164 1.6 3.2 0.00 0.00 0.00 64 992.8
20260509012943 6 162 0.0 3.2 0.00 0.00 0.00 65 992.8
20260509012443 6 161 0.0 0.0 0.00 0.00 0.00 65 992.7
20260509011943 6 159 0.0 0.0 0.00 0.00 0.00 65 992.7
20260509011443 6 153 0.0 0.0 0.00 0.00 0.00 65 992.7
20260509010943 6 148 0.0 0.0 0.00 0.00 0.00 66 992.6
20260509010443 6 148 0.0 0.0 0.00 0.00 0.00 65 992.6
20260509005944 6 148 0.0 0.0 0.00 0.00 0.00 64 992.6
20260509005443 6 148 0.0 0.0 0.00 0.00 0.00 63 992.6
20260509004944 7 148 0.0 0.0 0.00 0.00 0.00 62 992.6
20260509004444 7 148 0.0 0.0 0.00 0.00 0.00 63 992.6
20260509003944 7 148 0.0 0.0 0.00 0.00 0.00 62 992.6
20260509003444 7 148 0.0 0.0 0.00 0.00 0.00 60 992.6
20260509002944 8 148 0.0 0.0 0.00 0.00 0.00 61 992.6
20260509002444 8 150 0.0 1.6 0.00 0.00 0.00 60 992.5
20260509001944 8 145 0.0 3.2 0.00 0.00 0.00 60 992.5
20260509001444 8 135 0.0 1.6 0.00 0.00 0.00 60 992.6
20260509000944 8 130 1.6 3.2 0.00 0.00 0.00 58 992.6
20260509000444 8 109 1.6 3.2 0.00 0.00 0.00 59 992.5
20260508235944 8 108 3.2 4.8 0.00 0.00 0.00 58 992.5
20260508235444 8 109 1.6 4.8 0.00 0.00 0.00 58 992.6
20260508234944 8 107 1.6 4.8 0.00 0.00 0.00 58 992.7
20260508234444 8 105 1.6 3.2 0.00 0.00 0.00 58 992.7
20260508233944 8 81 0.0 3.2 0.00 0.00 0.00 58 992.7
20260508233444 8 94 0.0 0.0 0.00 0.00 0.00 56 992.8
20260508232944 8 94 0.0 0.0 0.00 0.00 0.00 56 992.7
20260508232444 9 94 0.0 0.0 0.00 0.00 0.00 55 992.7
20260508231944 10 94 0.0 0.0 0.00 0.00 0.00 53 992.8
20260508231444 10 94 0.0 3.2 0.00 0.00 0.00 53 992.8
20260508230944 10 83 0.0 1.6 0.00 0.00 0.00 53 992.8
20260508230444 10 113 1.6 3.2 0.00 0.00 0.00 52 992.7
20260508225944 10 92 1.6 3.2 0.00 0.00 0.00 50 992.8
20260508225444 10 107 1.6 3.2 0.00 0.00 0.00 51 992.8
20260508224944 10 86 1.6 4.8 0.00 0.00 0.00 51 992.8
20260508224444 11 98 1.6 4.8 0.00 0.00 0.00 50 992.9
20260508223944 11 86 1.6 4.8 0.00 0.00 0.00 50 992.8
20260508223444 11 96 1.6 4.8 0.00 0.00 0.00 50 993.0
20260508222944 11 102 3.2 6.4 0.00 0.00 0.00 52 993.0
20260508222444 11 88 1.6 6.4 0.00 0.00 0.00 51 993.0
20260508221944 11 86 1.6 6.4 0.00 0.00 0.00 54 993.0
20260508221444 11 78 3.2 4.8 0.00 0.00 0.00 54 993.0
20260508220944 10 90 3.2 4.8 0.00 0.00 0.00 54 993.1
20260508220444 11 96 3.2 6.4 0.00 0.00 0.00 52 993.0
20260508215944 11 81 3.2 4.8 0.00 0.00 0.00 52 993.2
20260508215444 11 92 1.6 4.8 0.00 0.00 0.00 53 993.2
20260508214945 11 106 1.6 4.8 0.00 0.00 0.00 54 993.2
20260508214444 11 78 1.6 4.8 0.00 0.00 0.00 52 993.2
20260508213945 11 104 3.2 4.8 0.00 0.00 0.00 53 993.2
20260508213444 11 73 1.6 6.4 0.00 0.00 0.00 52 993.3
20260508212945 11 80 3.2 4.8 0.00 0.00 0.00 52 993.2
20260508212444 11 75 3.2 6.4 0.00 0.00 0.00 49 993.1
20260508211945 12 93 1.6 9.7 0.00 0.00 0.00 49 993.2
20260508211444 12 72 1.6 4.8 0.00 0.00 0.00 52 993.2
20260508210944 12 121 3.2 6.4 0.00 0.00 0.00 51 993.1
20260508210444 12 88 3.2 11.3 0.00 0.00 0.00 50 993.2
20260508205944 12 103 3.2 4.8 0.00 0.00 0.00 51 993.2
20260508205444 11 71 3.2 6.4 0.00 0.00 0.00 51 993.2
20260508204945 11 117 3.2 6.4 0.00 0.00 0.00 53 993.2
20260508204444 11 75 3.2 8.0 0.00 0.00 0.00 51 993.3
20260508203944 11 98 3.2 9.7 0.00 0.00 0.00 53 993.3
20260508203444 11 90 3.2 9.7 0.00 0.00 0.00 53 993.3
20260508202944 11 77 3.2 6.4 0.00 0.00 0.00 53 993.4
20260508202445 10 80 3.2 6.4 0.00 0.00 0.00 53 993.3
20260508201945 10 86 3.2 9.7 0.00 0.00 0.00 53 993.3
20260508201445 11 103 3.2 6.4 0.00 0.00 0.00 53 993.4
20260508200945 11 84 3.2 6.4 0.00 0.00 0.00 52 993.4
20260508200445 11 82 3.2 4.8 0.00 0.00 0.00 53 993.5
20260508195945 11 76 3.2 4.8 0.00 0.00 0.00 53 993.5
20260508195445 11 71 3.2 6.4 0.00 0.00 0.00 53 993.4
20260508194945 11 82 3.2 9.7 0.00 0.00 0.00 55 993.8
20260508194445 11 77 3.2 4.8 0.00 0.00 0.00 54 993.7
20260508193945 11 89 3.2 6.4 0.00 0.00 0.00 55 993.8
20260508193445 11 93 3.2 6.4 0.00 0.00 0.00 55 993.9
20260508192945 11 96 3.2 6.4 0.00 0.00 0.00 54 993.9
20260508192445 11 81 3.2 9.7 0.00 0.00 0.00 54 994.0
20260508191945 11 77 3.2 4.8 0.00 0.00 0.00 53 994.0
20260508191445 11 80 3.2 6.4 0.00 0.00 0.00 58 993.9
20260508190945 10 82 3.2 4.8 0.00 0.00 0.00 56 994.1
20260508190445 10 75 3.2 6.4 0.00 0.00 0.00 57 994.1
20260508185945 10 108 3.2 6.4 0.00 0.00 0.00 58 994.3
20260508185445 10 76 3.2 8.0 0.00 0.00 0.00 57 994.3
20260508184945 10 71 3.2 6.4 0.00 0.00 0.00 58 994.4
20260508184445 10 80 3.2 6.4 0.00 0.00 0.00 59 994.3
20260508183945 10 75 3.2 8.0 0.00 0.00 0.00 56 994.4
20260508183445 10 80 3.2 4.8 0.00 0.00 0.00 60 994.5
20260508182945 10 77 3.2 4.8 0.00 0.00 0.00 58 994.4
20260508182445 10 74 3.2 4.8 0.00 0.00 0.00 56 994.5
20260508181945 10 77 3.2 6.4 0.00 0.00 0.00 57 994.6
20260508181445 10 78 3.2 6.4 0.00 0.00 0.00 57 994.6
20260508180945 10 108 3.2 6.4 0.00 0.00 0.00 57 994.7
20260508180445 10 77 3.2 6.4 0.00 0.00 0.00 56 994.8
20260508175945 10 76 3.2 4.8 0.00 0.00 0.00 59 994.9
20260508175445 10 84 3.2 6.4 0.00 0.00 0.00 56 994.8
20260508174945 10 114 3.2 4.8 0.00 0.00 0.00 56 994.9
20260508174445 10 105 3.2 9.7 0.00 0.00 0.00 58 994.9
20260508173945 10 82 3.2 6.4 0.00 0.00 0.00 59 995.0
20260508173445 10 117 1.6 6.4 0.00 0.00 0.00 59 995.1
20260508172945 10 104 1.6 4.8 0.00 0.00 0.00 60 995.1
20260508172445 9 81 3.2 4.8 0.00 0.00 0.00 59 995.1
20260508171945 9 90 3.2 4.8 0.00 0.00 0.00 57 995.2
20260508171445 10 75 3.2 11.3 0.00 0.00 0.00 56 995.2
20260508170945 10 92 3.2 6.4 0.00 0.00 0.00 59 995.3
20260508170445 10 73 3.2 4.8 0.00 0.00 0.00 58 995.4
20260508165945 10 112 1.6 6.4 0.00 0.00 0.00 55 995.3
20260508165445 11 261 1.6 4.8 0.00 0.00 0.00 54 995.4
20260508164945 11 64 3.2 4.8 0.00 0.00 0.00 53 995.4
20260508164445 12 44 8.0 14.5 0.00 0.00 0.00 53 995.5
20260508163945 12 281 14.5 22.5 0.00 0.00 0.00 47 995.3
20260508163445 11 284 14.5 30.6 0.00 0.00 0.00 48 995.4
20260508162945 11 288 12.9 20.9 0.00 0.00 0.00 46 995.5
20260508162445 11 284 12.9 22.5 0.00 0.00 0.00 47 995.5
20260508161945 11 313 11.3 22.5 0.00 0.00 0.00 47 995.5
20260508161445 12 313 8.0 19.3 0.00 0.00 0.00 47 995.5
20260508160945 12 325 8.0 16.1 0.00 0.00 0.00 47 995.5
20260508160445 12 306 9.7 24.1 0.00 0.00 0.00 48 995.5
20260508155945 12 316 8.0 20.9 0.00 0.00 0.00 47 995.6
20260508155445 12 308 8.0 14.5 0.00 0.00 0.00 48 995.7
20260508154945 11 292 8.0 16.1 0.00 0.00 0.00 50 995.8
20260508154445 11 259 8.0 19.3 0.00 0.00 0.00 54 995.8
20260508153945 11 296 8.0 14.5 0.00 0.00 0.00 54 995.9
20260508153445 11 281 11.3 16.1 0.00 0.00 0.00 52 995.9
20260508152945 10 287 14.5 25.7 0.00 0.00 0.00 55 996.0
20260508152445 10 290 16.1 25.7 0.00 0.00 0.00 51 996.1
20260508151946 11 318 14.5 25.7 0.00 0.00 0.00 51 996.1
20260508151446 11 320 16.1 24.1 0.00 0.00 0.00 51 996.2
20260508150946 11 290 16.1 24.1 0.00 0.00 0.00 52 996.3
20260508150446 10 329 12.9 24.1 0.00 0.00 0.00 54 996.3
20260508145946 10 289 9.7 22.5 0.00 0.00 0.00 53 996.3
20260508145446 10 298 8.0 17.7 0.00 0.00 0.00 58 996.3
20260508144946 10 269 9.7 14.5 0.00 0.00 0.00 57 996.3
20260508144446 10 315 12.9 16.1 0.00 0.00 0.00 59 996.3
20260508143946 10 296 12.9 20.9 0.00 0.00 0.00 58 996.4
20260508143446 10 289 11.3 20.9 0.00 0.00 0.00 59 996.5
20260508142946 9 292 9.7 17.7 0.00 0.00 0.00 63 996.6
20260508142446 8 296 8.0 16.1 0.00 0.00 0.00 62 996.5
20260508141946 8 287 8.0 16.1 0.00 0.00 0.00 62 996.5
20260508141446 8 300 6.4 16.1 0.00 0.00 0.00 62 996.7
20260508140946 8 279 8.0 11.3 0.00 0.00 0.00 65 996.6
20260508140446 8 315 9.7 16.1 0.00 0.00 0.00 64 996.6
20260508135946 8 312 8.0 19.3 0.00 0.00 0.00 65 996.7
20260508135446 7 282 8.0 12.9 0.00 0.00 0.00 66 996.7
20260508134946 7 326 11.3 17.7 0.00 0.00 0.00 65 996.8
20260508134446 7 284 9.7 16.1 0.00 0.00 0.00 66 996.8
20260508133946 7 314 9.7 17.7 0.00 0.00 0.00 69 996.8
20260508133446 7 261 9.7 19.3 0.00 0.00 0.00 69 996.9
20260508132946 6 300 8.0 19.3 0.00 0.00 0.00 71 996.9
20260508132446 6 257 6.4 14.5 0.00 0.00 0.00 72 997.0
20260508131946 6 285 6.4 9.7 0.00 0.00 0.00 72 997.0
20260508131446 5 288 6.4 17.7 0.00 0.00 0.00 73 997.1
20260508130946 5 294 4.8 11.3 0.00 0.00 0.00 75 997.0
20260508130446 5 284 4.8 8.0 0.00 0.00 0.00 75 997.1
20260508125946 5 285 3.2 9.7 0.00 0.00 0.00 75 997.1
20260508125446 4 292 1.6 4.8 0.00 0.00 0.00 77 997.1
20260508124946 4 284 1.6 3.2 0.00 0.00 0.00 77 997.1
20260508124446 4 270 3.2 6.4 0.00 0.00 0.00 77 997.2